DW2080 San Leon TX US current weather conditions

sailwx.info

Wind from 099 at 5 knots gusting 7

Air temperature 32.2° C
Dewpoint 26.5° C

Last reported at 2020-Aug-06 18:03 UTC.
Time now 2020-Aug-06 19:16 UTC

Location: N 29°30' W 094°57'.
View on Google Maps.

See reports from other nearby stations

  
Tides and Currents Weather Stations Pressure Air Temp Water Temp Dewpoint Dewpoint Depression Visibility Wind Speed Wind Dir Waves Ship Positions
date/time (UTC)wind fromknots sea level pressurealtimeterstation pressurevisibilityair tempwater tempwave heightnotes
2020-Aug-06 18:03 099 5 gusting 7 32.2
2020-Aug-06 17:46 099 5 gusting 6 31.7
2020-Aug-06 17:32 092 4 gusting 7 31.1
2020-Aug-06 17:17 046 2 gusting 6 31.7
2020-Aug-06 17:01 116 1 gusting 6 31.7
2020-Aug-06 16:46 141 1 gusting 5 30.6
2020-Aug-06 16:31 119 30.0
2020-Aug-06 16:16 118 29.4
2020-Aug-06 16:01 234 29.4
2020-Aug-06 15:46 234 28.9
2020-Aug-06 15:31 234 28.9
2020-Aug-06 15:16 235 28.3
2020-Aug-06 15:01 235 28.9
2020-Aug-06 14:45 235 28.3
2020-Aug-06 14:31 234 28.3
2020-Aug-06 14:15 234 27.8
2020-Aug-06 14:00 234 27.8
2020-Aug-06 13:46 234 27.2
2020-Aug-06 13:31 234 27.2
2020-Aug-06 13:16 234 26.7
2020-Aug-06 13:00 234 26.7
2020-Aug-06 12:45 234 26.7
2020-Aug-06 12:30 234 26.7
2020-Aug-06 12:15 234 26.7
2020-Aug-06 12:00 234 26.7
2020-Aug-06 11:45 234 26.7
2020-Aug-06 11:30 234 26.7
2020-Aug-06 11:15 234 26.7
2020-Aug-06 11:00 234 26.7
2020-Aug-06 10:46 234 26.7
2020-Aug-06 10:30 234 27.2
2020-Aug-06 10:15 234 27.2
2020-Aug-06 10:00 234 27.2
2020-Aug-06 09:45 234 27.2
2020-Aug-06 09:30 234 27.2
2020-Aug-06 09:15 234 27.2
2020-Aug-06 09:00 234 27.2
2020-Aug-06 08:45 234 27.2
2020-Aug-06 08:30 236 27.2
2020-Aug-06 08:15 236 27.2
2020-Aug-06 08:00 236 27.2
2020-Aug-06 07:46 236 27.2
2020-Aug-06 07:32 234 27.2
2020-Aug-06 07:16 234 27.2
2020-Aug-06 07:02 234 27.2
2020-Aug-06 06:46 234 27.2
2020-Aug-06 06:32 234 27.2
2020-Aug-06 06:16 234 27.2
2020-Aug-06 06:01 234 27.2
2020-Aug-06 05:46 234 27.8
2020-Aug-06 05:32 234 27.8
2020-Aug-06 05:16 234 27.8
2020-Aug-06 05:01 234 27.8
2020-Aug-06 04:46 236 27.8
2020-Aug-06 04:32 236 27.8
2020-Aug-06 04:16 236 27.8
2020-Aug-06 04:03 236 27.8
2020-Aug-06 03:47 236 27.8
2020-Aug-06 03:33 236 28.3
2020-Aug-06 03:17 236 28.3
2020-Aug-06 03:02 236 28.3
2020-Aug-06 02:47 233 28.3
2020-Aug-06 02:31 212 0 gusting 3 28.3
2020-Aug-06 02:16 180 28.9
2020-Aug-06 02:02 156 28.9
2020-Aug-06 01:46 240 29.4
2020-Aug-06 01:30 222 29.4
2020-Aug-06 01:16 163 30.0
2020-Aug-06 01:01 162 0 gusting 4 30.6
2020-Aug-06 00:46 178 30.6
2020-Aug-06 00:31 154 0 gusting 4 31.1
2020-Aug-06 00:15 153 0 gusting 4 31.7
2020-Aug-06 00:01 265 0 gusting 5 32.2
2020-Aug-05 23:47 178 0 gusting 4 32.2
2020-Aug-05 23:31 212 0 gusting 4 32.8
2020-Aug-05 23:16 238 0 gusting 6 32.8
2020-Aug-05 23:01 146 0 gusting 6 33.3
2020-Aug-05 22:46 237 1 gusting 7 33.3
2020-Aug-05 22:30 306 0 gusting 6 33.3
2020-Aug-05 22:16 240 2 gusting 8 33.9
2020-Aug-05 22:00 134 1 gusting 7 33.9
2020-Aug-05 21:46 180 33.9
2020-Aug-05 21:30 242 2 gusting 7 34.4
2020-Aug-05 21:15 248 34.4
2020-Aug-05 21:00 283 35.0
2020-Aug-05 20:45 138 2 gusting 6 35.0
2020-Aug-05 20:30 221 1 gusting 6 35.0
2020-Aug-05 20:15 248 35.0
2020-Aug-05 20:00 244 35.6
2020-Aug-05 19:45 225 0 gusting 6 35.6
2020-Aug-05 19:30 146 2 gusting 5 35.6
2020-Aug-05 19:15 229 0 gusting 6 35.6
2020-Aug-05 19:00 238 1 gusting 8 35.0
2020-Aug-05 18:45 244 0 gusting 3 34.4
2020-Aug-05 18:30 126 33.9
2020-Aug-05 18:15 286 33.3
2020-Aug-05 18:03 113 4 gusting 7 34.4
2020-Aug-05 17:48 178 1 gusting 7 33.9
2020-Aug-05 17:30 155 2 gusting 7 33.3
2020-Aug-05 17:16 103 2 gusting 6 33.3
2020-Aug-05 17:02 306 32.8
2020-Aug-05 16:46 105 32.8
2020-Aug-05 16:31 158 1 gusting 3 32.2
2020-Aug-05 16:15 275 31.7
2020-Aug-05 16:00 221 31.7
2020-Aug-05 15:45 239 31.1
2020-Aug-05 15:31 252 30.6
2020-Aug-05 15:15 264 1 gusting 5 30.6
2020-Aug-05 15:00 267 30.0
2020-Aug-05 14:45 286 29.4
2020-Aug-05 14:30 268 28.9
2020-Aug-05 14:15 236 28.9
2020-Aug-05 14:00 313 1 gusting 3 28.3
2020-Aug-05 13:45 321 27.2
2020-Aug-05 13:32 310 26.1
2020-Aug-05 13:16 284 25.6
2020-Aug-05 13:01 282 25.6
2020-Aug-05 12:47 278 25.0
2020-Aug-05 12:31 117 25.0
2020-Aug-05 12:16 248 24.4
2020-Aug-05 12:01 186 24.4
2020-Aug-05 11:46 186 24.4
2020-Aug-05 11:30 186 24.4
2020-Aug-05 11:16 186 25.0
2020-Aug-05 11:02 186 25.0
2020-Aug-05 10:46 186 25.0
2020-Aug-05 10:31 186 25.0
2020-Aug-05 10:16 186 25.0
2020-Aug-05 10:01 186 25.0
2020-Aug-05 09:45 186 25.0
2020-Aug-05 09:31 186 25.0
2020-Aug-05 09:16 186 25.0
2020-Aug-05 09:00 186 25.0
2020-Aug-05 08:46 186 25.0
2020-Aug-05 08:30 186 25.0
2020-Aug-05 08:16 186 25.6
2020-Aug-05 08:01 186 25.6
2020-Aug-05 07:46 186 25.6
2020-Aug-05 07:30 186 25.6
2020-Aug-05 07:15 186 25.6
2020-Aug-05 07:00 186 26.1
2020-Aug-05 06:45 186 26.1
2020-Aug-05 06:31 187 26.1
2020-Aug-05 06:15 187 26.1
2020-Aug-05 06:00 184 26.1
2020-Aug-05 05:45 181 26.1
2020-Aug-05 05:31 167 25.6
2020-Aug-05 05:15 167 25.6
2020-Aug-05 05:00 167 25.6
2020-Aug-05 04:45 167 25.6
2020-Aug-05 04:30 167 25.6
2020-Aug-05 04:16 167 25.6
2020-Aug-05 04:00 167 25.6
2020-Aug-05 03:45 167 25.0
2020-Aug-05 03:30 167 25.6
2020-Aug-05 03:16 167 25.6
2020-Aug-05 03:00 167 25.6
2020-Aug-05 02:46 165 25.6
2020-Aug-05 02:30 163 25.0
2020-Aug-05 02:15 163 25.6
2020-Aug-05 02:00 163 25.6
2020-Aug-05 01:45 163 25.0
2020-Aug-05 01:30 133 25.0
2020-Aug-05 01:15 108 1 gusting 13 25.6
2020-Aug-05 01:00 143 25.6
2020-Aug-05 00:45 235 26.1
2020-Aug-05 00:30 293 1 gusting 3 26.7
2020-Aug-05 00:15 355 7 gusting 21 27.2
2020-Aug-05 00:01 034 16 gusting 22 28.9
2020-Aug-04 23:46 360 0 gusting 4 32.2
2020-Aug-04 23:32 128 1 gusting 5 32.8
2020-Aug-04 23:16 182 33.3
2020-Aug-04 23:03 223 1 gusting 7 33.9
2020-Aug-04 22:46 207 2 gusting 9 33.9
2020-Aug-04 22:31 236 1 gusting 6 33.9
2020-Aug-04 22:16 163 1 gusting 7 33.9
2020-Aug-04 22:01 248 2 gusting 6 34.4
2020-Aug-04 21:46 249 1 gusting 7 34.4
2020-Aug-04 21:31 192 0 gusting 8 34.4
2020-Aug-04 21:16 253 0 gusting 6 33.9
2020-Aug-04 21:01 309 0 gusting 6 33.3
2020-Aug-04 20:46 282 33.9
2020-Aug-04 20:30 309 3 gusting 6 34.4
2020-Aug-04 20:16 318 0 gusting 6 33.9
2020-Aug-04 20:00 096 3 gusting 7 33.9
2020-Aug-04 19:46 094 5 gusting 7 33.3
2020-Aug-04 19:31 094 3 gusting 6 33.3
2020-Aug-04 19:16 096 4 gusting 6 33.3
2020-Aug-04 19:01 098 2 gusting 6 32.8